EW7157 Weather Reports


time (UTC)temp
C
wind
direction
speed
KPH
gust
KPH
rain 1hr
cm
rain 24hr
cm
rain mn
cm
humidity
%
barometer
mb
20260902035129 22 90 0.0 0.0 0.00 0.08 0.08 93 1038.9
20260902033129 22 90 0.0 0.0 0.00 0.08 0.08 93 1038.8
20260902032228 22 90 0.0 0.0 0.00 0.08 0.08 92 1038.8
20260902031229 22 90 0.0 0.0 0.00 0.08 0.08 92 1038.7
20260902030229 22 90 0.0 0.0 0.00 0.08 0.08 92 1038.5
20260902030129 22 90 0.0 0.0 0.00 0.08 0.08 93 1038.5
20260902025145 22 90 0.0 0.0 0.00 0.08 0.08 92 1038.1
20260902024030 22 90 0.0 0.0 0.00 0.08 0.08 93 1038.1
20260902023029 22 90 0.0 0.0 0.00 0.08 0.08 91 1038.3
20260902022029 22 90 0.0 0.0 0.00 0.08 0.08 92 1038.3
20260902021029 22 90 0.0 0.0 0.00 0.08 0.08 92 1038.1
20260902015030 22 90 0.0 0.0 0.03 0.08 0.08 91 1038.8
20260902014029 22 90 0.0 0.0 0.03 0.08 0.08 91 1038.0
20260902013028 22 90 0.0 0.0 0.03 0.08 0.08 90 1037.5
20260902012929 22 90 0.0 0.0 0.05 0.08 0.08 89 1037.5
20260902011931 22 90 0.0 0.0 0.05 0.08 0.08 89 1036.9
20260902010931 23 90 0.0 0.0 0.05 0.08 0.08 86 1036.1
20260902010829 23 90 0.0 0.0 0.05 0.08 0.08 86 1035.9
20260902005829 23 90 0.0 0.0 0.03 0.05 0.05 85 1036.6
20260902004830 23 90 0.0 0.0 0.03 0.05 0.05 83 1036.1
20260902002928 25 135 1.6 4.8 0.00 0.03 0.03 78 1036.2
20260902001928 26 188 4.8 17.7 0.00 0.03 0.03 84 1036.3
20260902000928 26 157 0.0 0.0 0.00 0.03 0.03 83 1035.6
20260901235929 26 157 0.0 0.0 0.00 0.03 0.03 83 1035.1
20260901234028 26 157 0.0 0.0 0.00 0.03 0.03 81 1035.6
20260901232928 26 157 0.0 0.0 0.00 0.03 0.03 81 1035.1
20260901230929 27 157 0.0 0.0 0.00 0.03 0.03 79 1035.5
20260901225928 27 157 0.0 0.0 0.00 0.03 0.03 77 1035.2
20260901224930 27 157 0.0 0.0 0.00 0.03 0.03 76 1035.1
20260901223830 28 157 0.0 0.0 0.00 0.03 0.03 76 1035.2
20260901222828 28 157 0.0 0.0 0.00 0.03 0.03 75 1035.2
20260901222729 28 157 0.0 0.0 0.00 0.03 0.03 74 1035.1
20260901221729 28 157 0.0 0.0 0.00 0.03 0.03 74 1035.3
20260901215730 29 157 0.0 0.0 0.00 0.03 0.03 72 1035.2
20260901213827 30 157 0.0 0.0 0.00 0.03 0.03 71 1035.7
20260901213729 30 157 0.0 0.0 0.00 0.03 0.03 70 1035.6
20260901212731 30 157 0.0 1.6 0.00 0.03 0.03 69 1035.7
20260901212630 30 157 0.0 0.0 0.00 0.03 0.03 69 1035.7
20260901210628 30 180 0.0 0.0 0.00 0.03 0.03 67 1035.4
20260901210529 30 180 0.0 0.0 0.00 0.03 0.03 68 1035.4
20260901205547 31 180 0.0 0.0 0.00 0.03 0.03 66 1035.6
20260901204529 31 90 0.0 0.0 0.00 0.03 0.03 63 1035.6
20260901203528 32 155 0.0 0.0 0.00 0.03 0.03 63 1035.6
20260901202628 32 180 0.0 0.0 0.00 0.03 0.03 62 1035.6
20260901201727 33 180 0.0 0.0 0.00 0.03 0.03 60 1035.6
20260901201627 33 180 0.0 0.0 0.00 0.03 0.03 60 1035.7
20260901200629 33 222 0.0 0.0 0.00 0.03 0.03 60 1035.8
20260901195630 33 135 0.0 0.0 0.00 0.03 0.03 59 1035.7
20260901195530 33 135 0.0 0.0 0.00 0.03 0.03 59 1035.7
20260901194530 33 180 0.0 0.0 0.00 0.03 0.03 59 1035.8
20260901193628 33 157 0.0 0.0 0.00 0.03 0.03 58 1036.0
20260901192631 33 180 0.0 0.0 0.00 0.03 0.03 59 1036.0
20260901190728 33 45 0.0 0.0 0.00 0.03 0.03 60 1036.1
20260901185729 32 45 0.0 0.0 0.00 0.03 0.03 60 1036.2
20260901185627 32 45 0.0 0.0 0.00 0.03 0.03 61 1036.2
20260901183628 32 45 0.0 0.0 0.00 0.03 0.03 61 1036.5
20260901183529 32 45 0.0 0.0 0.00 0.03 0.03 60 1036.5
20260901182628 32 360 0.0 0.0 0.00 0.03 0.03 61 1036.6
20260901181629 32 67 0.0 0.0 0.00 0.03 0.03 61 1036.7
20260901181529 32 67 0.0 0.0 0.00 0.03 0.03 61 1036.5
20260901180529 32 204 0.0 0.0 0.00 0.03 0.03 63 1036.7
20260901175528 31 349 0.0 0.0 0.00 0.03 0.03 63 1036.7
20260901174627 31 90 0.0 0.0 0.00 0.03 0.03 66 1036.7
20260901173627 30 180 0.0 0.0 0.00 0.03 0.03 68 1036.8
20260901170628 27 270 0.0 0.0 0.00 0.03 0.03 77 1037.2
20260901165630 26 250 0.0 0.0 0.00 0.03 0.03 83 1037.2
20260901165530 26 153 0.0 0.0 0.00 0.03 0.03 84 1037.2
20260901163529 27 135 0.0 0.0 0.00 0.03 0.03 84 1037.9
20260901163428 27 135 0.0 0.0 0.00 0.03 0.03 84 1038.0
20260901162429 27 135 0.0 0.0 0.00 0.03 0.03 83 1038.2
20260901161428 27 135 0.0 0.0 0.00 0.03 0.03 81 1038.1
20260901160430 26 135 0.0 0.0 0.00 0.03 0.03 84 1037.9
20260901155429 26 135 0.0 0.0 0.00 0.03 0.03 85 1038.0
20260901153329 26 112 0.0 0.0 0.00 0.03 0.03 85 1038.2
20260901152329 26 112 0.0 0.0 0.00 0.05 0.03 86 1038.1
20260901151330 26 112 0.0 0.0 0.00 0.05 0.03 87 1038.2
20260901150328 26 112 0.0 0.0 0.00 0.05 0.03 86 1038.1
20260901150244 26 112 0.0 0.0 0.00 0.05 0.03 87 1038.2
20260901145328 26 112 0.0 0.0 0.00 0.05 0.03 89 1038.2
20260901145229 26 112 0.0 0.0 0.00 0.05 0.03 89 1038.1
20260901144230 25 112 0.0 0.0 0.00 0.05 0.03 89 1038.0
20260901143231 25 45 0.0 0.0 0.00 0.05 0.03 91 1038.4
20260901143128 25 45 0.0 0.0 0.00 0.05 0.03 91 1038.3
20260901142130 25 45 0.0 0.0 0.00 0.05 0.03 90 1038.2
20260901141229 25 45 0.0 0.0 0.00 0.05 0.03 89 1038.2
20260901141129 25 45 0.0 0.0 0.00 0.05 0.03 89 1038.1
20260901140141 25 45 0.0 0.0 0.00 0.05 0.03 92 1038.1
20260901135230 24 45 0.0 0.0 0.00 0.05 0.03 93 1038.1
20260901134229 23 45 0.0 0.0 0.00 0.05 0.03 94 1038.3
20260901132230 23 52 0.0 0.0 0.00 0.05 0.03 93 1038.0
20260901131129 23 67 0.0 0.0 0.00 0.05 0.03 94 1038.0
20260901130128 23 67 0.0 0.0 0.00 0.05 0.03 95 1038.2
20260901125129 23 67 0.0 0.0 0.00 0.05 0.03 95 1038.3
20260901124129 22 67 0.0 0.0 0.00 0.05 0.03 96 1038.2
20260901123227 22 67 0.0 0.0 0.00 0.05 0.03 96 1038.2
20260901122231 22 67 0.0 0.0 0.00 0.05 0.03 95 1038.3
20260901121329 22 67 0.0 0.0 0.00 0.05 0.03 95 1038.3
20260901120328 22 67 0.0 0.0 0.00 0.05 0.03 95 1038.2
20260901120230 22 67 0.0 0.0 0.00 0.05 0.03 96 1038.2
20260901115230 22 67 0.0 0.0 0.00 0.05 0.03 96 1038.5
20260901114228 22 67 0.0 0.0 0.00 0.05 0.03 96 1038.4
20260901113231 21 67 0.0 0.0 0.00 0.05 0.03 96 1038.7
20260901112228 21 67 0.0 0.0 0.00 0.05 0.03 96 1038.6
20260901111246 21 67 0.0 0.0 0.03 0.05 0.03 95 1038.4
20260901105328 21 67 0.0 0.0 0.03 0.05 0.03 95 1038.5
20260901104329 21 67 0.0 0.0 0.03 0.05 0.03 95 1038.3
20260901103328 21 67 0.0 0.0 0.03 0.05 0.03 95 1038.5
20260901102329 21 67 0.0 0.0 0.03 0.05 0.03 94 1038.5
20260901101329 21 67 0.0 0.0 0.00 0.03 0.00 95 1038.5
20260901100427 21 67 0.0 0.0 0.00 0.03 0.00 94 1038.4
20260901095430 21 67 0.0 0.0 0.00 0.03 0.00 95 1038.4
20260901094527 21 67 0.0 0.0 0.00 0.03 0.00 95 1038.5
20260901092430 21 67 0.0 0.0 0.00 0.03 0.00 95 1038.3
20260901091429 21 67 0.0 0.0 0.00 0.03 0.00 94 1038.4
20260901090528 21 67 0.0 0.0 0.00 0.03 0.00 95 1038.6
20260901084629 21 67 0.0 0.0 0.00 0.03 0.00 95 1039.0
20260901083729 21 67 0.0 0.0 0.00 0.03 0.00 95 1038.8
20260901083627 21 67 0.0 0.0 0.00 0.03 0.00 95 1038.7
20260901082629 21 67 0.0 0.0 0.00 0.03 0.00 94 1038.8
20260901081728 21 67 0.0 0.0 0.00 0.03 0.00 95 1038.7
20260901081628 21 67 0.0 0.0 0.00 0.03 0.00 95 1038.7
20260901081531 21 67 0.0 0.0 0.00 0.03 0.00 95 1038.7
20260901080628 21 67 0.0 0.0 0.00 0.03 0.00 95 1038.6
20260901074630 21 67 0.0 0.0 0.00 0.03 0.00 95 1038.8
20260901073629 21 67 0.0 0.0 0.00 0.03 0.00 95 1038.7
20260901073527 21 67 0.0 0.0 0.00 0.03 0.00 94 1038.6
20260901072529 21 67 0.0 0.0 0.00 0.03 0.00 95 1038.7
20260901071529 21 67 0.0 0.0 0.00 0.03 0.00 95 1038.8
20260901071430 21 67 0.0 0.0 0.00 0.03 0.00 95 1038.8
20260901070445 21 67 0.0 0.0 0.00 0.03 0.00 95 1038.9
20260901065530 21 67 0.0 0.0 0.00 0.03 0.00 93 1038.9
20260901065446 21 67 0.0 0.0 0.00 0.03 0.00 94 1039.0
20260901064431 21 67 0.0 0.0 0.00 0.03 0.00 93 1039.2
20260901063427 21 67 0.0 0.0 0.00 0.03 0.00 93 1039.2
20260901062428 21 67 0.0 0.0 0.00 0.03 0.00 93 1039.3
20260901061428 21 67 0.0 0.0 0.00 0.03 0.00 94 1039.4
20260901061329 21 67 0.0 0.0 0.00 0.03 0.00 94 1039.4
20260901054330 21 67 0.0 0.0 0.00 0.03 0.00 94 1039.5
20260901053230 21 67 0.0 0.0 0.00 0.03 0.00 94 1039.5
20260901052327 21 67 0.0 0.0 0.00 0.03 0.00 93 1039.5
20260901051329 21 67 0.0 0.0 0.00 0.03 0.00 93 1039.6
20260901045446 21 67 0.0 0.0 0.00 0.03 0.00 92 1039.7
20260901044528 21 67 0.0 0.0 0.00 0.03 0.00 93 1039.8
20260901043531 21 67 0.0 0.0 0.00 0.03 0.00 93 1040.2
20260901042628 21 67 0.0 0.0 0.00 0.03 0.00 93 1040.2
20260901042529 21 67 0.0 0.0 0.00 0.03 0.00 93 1040.2
20260901041529 21 67 0.0 0.0 0.00 0.05 0.00 93 1040.3
20260901040628 21 67 0.0 0.0 0.00 0.08 0.00 93 1040.4